This demonstration page uses our WeatherBlox Daily Observations layout. Learn more.

Left ArrowRight Arrow

39.08367, -84.50855

Hourly Observations for February 28, 2016

Temp ( °F °C ) Dew Point ( °F °C ) Humidity (%) Winds ( mph kmh ) Pressure ( in mb ) Visibility ( mi km ) Precip ( " mm )
12:53 am 00:53 Clear 37 2.8 31 -0.6 79 79 N N/A 30.03 1017 10 16 N/A
1:53 am 01:53 Clear 35 1.7 31 -0.6 85 85 N N/A 30.03 1017 10 16 N/A
2:53 am 02:53 Clear 34 1.1 30 -1.1 85 85 N N/A 30.02 1017 10 16 N/A
3:53 am 03:53 Clear 33 0.6 31 -0.6 92 92 N N/A 30.01 1016 10 16 N/A
4:53 am 04:53 Clear 34 1.1 31 -0.6 89 89 W 5 7 30.00 1016 10 16 N/A
5:53 am 05:53 Clear 39 3.9 32 undefined 76 76 SSW 6 9 30.00 1016 10 16 N/A
6:53 am 06:53 Clear 33 0.6 29 -1.7 85 85 N N/A 30.00 1016 10 16 N/A
7:53 am 07:53 Sunny 33 0.6 30 -1.1 89 89 N N/A 30.00 1016 10 16 N/A
8:53 am 08:53 Sunny 46 7.8 36 2.2 68 68 S 13 20 29.97 1015 10 16 N/A
9:53 am 09:53 Sunny 53 11.7 37 2.8 55 55 SSW 13 20 29.95 1014 10 16 N/A
10:53 am 10:53 Sunny 59 15 37 2.8 44 44 SW 20 31 29.92 1013 10 16 N/A
11:53 am 11:53 Sunny 61 16.1 37 2.8 41 41 SSW 21 33 29.90 1013 10 16 N/A
12:53 pm 12:53 Sunny 63 17.2 38 3.3 40 40 SW 22 35 29.87 1012 10 16 N/A
1:53 pm 13:53 Sunny 64 17.8 37 2.8 37 37 SSW 29 46 29.80 1009 10 16 N/A
2:53 pm 14:53 Sunny 66 18.9 37 2.8 34 34 SSW 25 41 29.77 1008 10 16 N/A
3:53 pm 15:53 Sunny 66 18.9 34 1.1 30 30 SW 32 52 29.73 1007 10 16 N/A
4:53 pm 16:53 Sunny 65 18.3 33 0.6 31 31 SSW 21 33 29.72 1007 10 16 N/A
5:53 pm 17:53 Sunny 63 17.2 34 1.1 34 34 SW 24 39 29.72 1007 10 16 N/A
6:53 pm 18:53 Clear 60 15.6 33 0.6 36 36 SSW 18 30 29.70 1006 10 16 N/A
7:53 pm 19:53 Mostly Clear 59 15 33 0.6 38 38 SSW 21 33 29.72 1007 10 16 N/A
8:53 pm 20:53 Cloudy 60 15.6 32 undefined 35 35 SSW 21 33 29.70 1006 10 16 N/A
9:53 pm 21:53 Cloudy 60 15.6 33 0.6 36 36 SSW 21 33 29.68 1005 10 16 N/A
10:53 pm 22:53 Cloudy 61 16.1 34 1.1 36 36 SW 31 50 29.67 1005 10 16 N/A
11:53 pm 23:53 Cloudy 59 15 37 2.8 44 44 SW 15 24 29.65 1004 10 16 N/A

Powered by AerisWeather